Regional Weather Roundup
Issued by NWS Albany, NY

Home | Current Version | Previous Version | Graphics & Text | Print | Product List | Glossary On
Versions: 1 2 3 4 5 6 7 8 9 10 11 12 13 14 15 16 17 18 19 20 21 22 23 24 25 26 27 28 29 30 31 32 33 34 35 36 37 38 39 40 41 42 43 44 45 46 47 48 49 50
000
ASUS41 KALY 231510
RWRALY

NEW YORK STATE HOURLY WEATHER ROUNDUP
NATIONAL WEATHER SERVICE ALBANY NY
1000 AM EST SUN NOV 23 2014

NOTE: "FAIR" INDICATES FEW OR NO CLOUDS BELOW 12,000 FEET WITH NO
SIGNIFICANT WEATHER AND/OR NO OBSTRUCTIONS TO VISIBILITY.

NYZ032-033-038>043-046>054-057>066-NYZ062>081-231600-
EAST


CITY           SKY/WX    TMP DP  RH WIND       PRES   REMARKS
ALBANY         PTSUNNY   46  27  47 S7        30.14R
GLENS FALLS    CLOUDY    40  32  73 CALM      30.12S
POUGHKEEPSIE   MOSUNNY   48  22  35 SW8       30.18S
NEWBURGH       MOSUNNY   46  25  42 W8        30.18F
MONTGOMERY     MOSUNNY   47  22  37 SW8       30.17S
WHITE PLAINS   PTSUNNY   46  21  37 SW5       30.18S
ISLIP          PTSUNNY   50  28  42 SW17G23   30.20S
NEW YORK CITY  PTSUNNY   47  23  38 SW8       30.21S
CENTRAL PARK   CLOUDY    47  21  35 VRB3      30.23S
$$

NYZ005>009-017-018-044>046-055-056-231600-
CENTRAL


CITY           SKY/WX    TMP DP  RH WIND       PRES   REMARKS
FULTON         CLOUDY    46  38  73 S6        30.06S
SYRACUSE       CLOUDY    51  40  65 S9        30.07S
ROME           CLOUDY    45  40  82 E7        30.11R
ELMIRA         CLOUDY    49  35  58 SW3       30.09F
BINGHAMTON     MOSUNNY   48  30  49 SW10      30.10S
MONTICELLO     MOSUNNY   45  25  45 W3        30.16S
$$

NYZ026>034-041>043-231600-
NORTH


CITY           SKY/WX    TMP DP  RH WIND       PRES   REMARKS
WATERTOWN      CLOUDY    49  40  71 S5        30.04F
FORT DRUM      NOT AVBL
MASSENA        CLOUDY    44  44 100 SW7       30.05S FOG
SARANAC LAKE   FOG       39  39 100 SW6       30.03R VSB 1/2 WCI  35
PLATTSBURGH    CLOUDY    42  37  82 CALM      30.06R
$$

NYZ001>004-010>016-019>021-231600-
WEST


CITY           SKY/WX    TMP DP  RH WIND       PRES   REMARKS
NIAGARA FALLS  CLOUDY    48  39  71 SW13G23   30.02S
BUFFALO        CLOUDY    46  36  68 S10       30.04R
DUNKIRK        LGT RAIN  44  36  73 S14G24    30.05R
JAMESTOWN      CLOUDY    41  36  81 S7        30.06S
WELLSVILLE     CLOUDY    45  32  60 SW8       30.09S
ROCHESTER      CLOUDY    50  37  61 SW10      30.04F
PENN YAN       PTSUNNY   49  35  58 S9        30.08S
$$

             KEY
       WCI = WIND CHILL INDEX
       VSB = VISIBILITY
       HX  = HEAT INDEX
$$


USA.gov is the U.S. government's official web portal to all federal, state and local government web resources and services.